Theta_e
306 307 307 305 305 304 304 304 304 304 304 305 306 306 306 306 307 308 308 318 319 318 317 318 319 319 319 320 322 325 330 334 337 340 340 338 338 337 337 336 335 335 334
305 305 305 304 303 303 304 303 303 302 303 304 304 305 305 305 305 307 308 309 318 319 318 318 318 318 318 318 319 320 323 329 332 336 339 338 336 336 335 335 334 334 334
303 304 303 302 301 302 302 302 301 302 302 303 302 303 303 303 304 306 308 308 310 316 319 320 319 319 318 318 319 319 320 323 327 332 337 337 336 336 334 334 334 334 334
302 302 301 300 301 301 301 301 300 299 300 300 300 300 300 302 304 305 307 309 308 309 313 317 318 317 319 320 320 321 321 320 322 328 334 336 336 335 334 333 333 334 333
302 300 300 300 300 300 300 299 298 298 297 298 298 298 300 300 302 306 305 306 305 306 308 311 313 315 318 317 321 322 323 323 322 324 330 335 335 335 334 333 333 333 333
300 299 299 299 299 298 298 298 296 297 298 297 297 297 297 301 300 299 303 307 305 306 307 306 307 309 313 316 317 322 323 324 324 324 325 330 335 334 335 333 333 333 333
298 298 297 297 297 296 297 297 295 294 295 296 293 293 297 300 295 298 299 302 298 300 302 302 304 306 308 312 312 313 316 318 320 323 325 327 329 332 333 334 333 333 333
297 296 296 295 296 295 296 295 294 292 293 295 291 290 288 294 293 296 298 297 294 297 299 301 303 302 302 302 305 307 310 310 313 316 318 320 322 324 329 333 334 333 333
295 295 295 295 295 295 293 293 293 292 289 292 292 288 285 284 287 293 294 293 291 293 295 301 301 300 299 297 301 301 303 303 307 312 314 315 316 319 323 330 333 333 333
294 294 294 294 294 294 293 292 294 291 290 288 289 291 291 290 287 283 288 290 290 291 295 300 299 297 297 297 298 298 301 300 302 306 309 311 314 316 318 323 330 333 333
294 293 293 292 291 292 292 292 291 291 291 288 287 287 287 287 287 283 281 283 287 289 295 297 296 295 295 294 294 296 299 298 299 302 305 307 309 312 316 319 324 329 331
292 292 292 291 291 290 290 290 290 290 289 289 288 288 286 284 283 283 282 282 282 286 293 293 294 292 292 292 293 296 297 296 297 299 301 303 304 307 310 315 320 325 329
291 290 291 290 289 289 290 290 289 289 289 288 288 287 287 287 287 285 284 282 281 285 290 291 291 292 292 292 292 295 296 295 295 295 297 298 300 302 304 308 313 319 325
290 290 290 290 289 289 289 290 288 288 289 287 287 286 286 287 287 287 286 283 280 281 284 285 289 292 291 291 293 293 293 294 293 293 294 295 297 298 300 302 306 311 317
291 290 289 289 288 288 288 288 286 285 286 286 286 285 285 286 287 287 286 287 283 278 278 284 284 291 290 290 291 291 292 293 293 292 292 293 294 295 297 298 300 303 307
290 289 288 287 287 286 286 286 284 284 284 284 285 283 283 284 285 285 285 284 285 282 280 285 286 288 289 288 290 291 291 291 291 290 290 290 291 292 293 294 296 298 300
289 288 287 286 285 284 284 284 283 282 282 282 282 281 281 282 281 282 283 282 282 282 281 283 287 286 284 283 285 289 291 288 289 290 289 289 289 290 290 291 292 294 295
288 288 287 285 284 284 283 282 282 281 281 281 281 280 280 281 278 279 280 279 279 281 281 279 283 282 281 280 282 284 289 290 287 290 289 288 288 289 289 289 290 291 292
287 286 286 284 284 283 282 281 282 282 280 281 280 278 278 277 275 275 277 277 277 280 280 280 279 280 279 278 279 281 285 288 288 288 289 288 287 287 288 288 289 289 290
283 282 283 283 283 282 282 282 282 282 282 281 281 280 278 277 275 274 275 273 274 276 277 277 276 275 275 275 276 277 279 283 282 283 284 288 288 286 287 287 287 288 289
281 279 279 282 282 279 280 280 281 281 281 281 281 281 280 279 281 278 276 272 272 272 274 274 273 273 272 272 272 275 278 279 283 277 278 285 284 283 283 285 286 287 287
280 280 279 280 279 281 280 281 281 277 278 277 275 277 277 277 277 279 279 280 276 269 270 272 271 269 270 271 273 273 275 275 278 277 274 282 281 283 282 283 286 285 285
282 281 281 282 282 279 280 279 280 280 277 277 276 276 275 275 275 274 278 279 278 278 275 267 266 266 268 270 271 273 272 274 276 273 273 274 279 278 283 282 284 285 284
283 282 282 284 281 279 280 280 280 279 281 280 278 277 277 275 275 276 276 273 272 271 271 272 269 269 270 271 270 273 272 273 275 273 272 267 276 276 283 278 283 284 283
283 283 282 282 280 279 280 280 280 280 280 280 277 276 275 274 277 278 275 274 274 273 280 280 280 280 279 279 278 273 271 270 267 272 271 270 273 274 277 279 278 281 282
283 282 282 281 282 279 279 279 279 281 280 280 277 276 276 275 276 276 274 273 268 269 272 272 273 275 276 275 277 272 272 270 268 264 269 268 271 273 270 272 277 277 278
Wind_Speed
4 3 3 4 4 5 5 5 5 6 6 6 6 6 6 7 6 5 3 12 14 13 17 19 19 18 18 19 21 21 21 18 16 17 20 20 21 22 23 23 22 22 21
4 4 4 5 6 5 5 5 6 6 6 6 7 6 8 7 8 8 5 4 11 12 14 18 18 17 17 17 19 21 22 22 18 18 19 20 22 23 24 24 23 23 23
5 5 4 4 5 5 6 5 5 6 6 8 8 8 8 10 8 8 6 5 5 8 11 10 15 17 17 17 18 19 21 22 22 20 18 21 22 24 25 25 25 24 24
6 5 4 4 5 4 4 6 7 7 7 7 8 8 8 8 9 9 6 6 6 5 6 15 21 21 17 20 20 18 19 21 22 22 19 17 22 24 26 26 26 26 26
6 5 4 4 6 4 5 6 6 7 7 8 10 9 8 8 8 7 10 7 8 8 6 9 16 16 17 22 22 21 20 19 21 23 21 18 18 23 27 27 27 27 27
6 5 5 5 5 4 5 6 6 7 6 8 11 9 10 6 9 7 8 8 9 10 10 11 9 7 16 21 26 29 18 18 17 19 22 20 16 15 26 28 29 28 29
5 6 4 5 5 4 5 7 6 9 7 9 6 8 5 4 15 7 8 9 14 13 11 11 9 9 10 24 26 29 29 28 27 24 21 17 17 15 17 28 30 30 30
6 6 5 5 5 4 6 6 8 5 4 8 6 5 6 5 13 7 8 10 14 10 11 12 13 11 10 9 16 27 29 28 27 24 23 21 19 19 17 19 29 31 32
6 6 6 5 5 5 5 5 6 7 6 6 8 4 5 5 11 4 6 9 15 10 9 7 10 11 12 10 13 18 26 27 27 25 24 22 21 22 21 19 19 31 33
6 6 6 6 5 4 5 5 5 4 5 5 5 6 4 6 5 7 6 8 12 12 11 6 8 11 13 9 16 22 24 25 27 27 26 26 24 22 22 23 19 22 32
7 6 6 6 6 4 5 5 5 5 4 3 3 3 3 3 5 4 7 12 13 10 9 8 8 10 12 12 11 17 24 24 27 29 28 27 26 25 24 25 24 16 18
5 6 6 5 5 4 4 4 5 6 5 5 4 5 3 2 3 3 7 10 11 10 8 10 9 10 11 11 16 25 23 23 26 28 28 28 28 27 26 25 25 19 14
5 5 5 5 3 4 4 4 5 5 5 5 5 4 4 3 2 1 2 7 9 8 5 9 10 9 11 9 12 22 22 23 26 28 30 30 29 28 27 26 23 19 15
5 5 4 5 5 5 5 4 4 5 5 5 7 6 5 5 4 3 1 2 8 5 8 13 9 9 9 9 14 23 13 22 24 25 27 28 29 30 29 28 25 19 16
6 5 5 5 5 6 6 5 5 6 6 6 6 7 6 6 6 5 6 2 1 7 8 8 7 9 9 10 14 9 10 18 22 23 25 28 29 31 31 30 29 26 21
6 7 6 6 5 6 6 7 7 6 7 6 6 8 8 7 8 7 6 6 6 4 6 7 7 8 11 11 15 11 9 13 18 21 23 25 28 30 32 32 31 30 27
6 6 7 5 5 7 7 6 7 7 8 7 7 9 10 10 8 8 7 7 7 7 8 8 6 9 12 14 14 10 9 6 7 22 23 24 26 28 30 32 33 32 30
6 6 6 6 6 6 7 6 7 7 6 6 7 9 9 8 10 10 7 9 9 9 7 10 8 9 12 15 14 14 10 7 5 16 22 24 25 27 28 31 33 32 31
6 6 6 5 5 5 5 3 5 6 3 5 4 7 7 8 7 7 6 8 8 8 8 7 8 9 9 11 13 12 11 9 6 19 16 18 23 25 28 29 31 33 34
8 5 5 5 6 6 5 6 6 6 6 5 7 7 9 7 5 6 6 6 8 8 8 7 8 9 10 13 8 10 12 10 6 9 13 13 14 22 27 28 30 32 33
5 4 2 3 7 4 3 5 5 4 5 5 5 6 8 11 13 9 3 4 7 8 8 8 8 8 9 12 13 11 10 10 2 10 7 6 9 7 12 19 23 31 31
6 4 3 3 5 4 8 7 5 2 4 3 3 3 4 10 11 15 6 11 10 4 7 7 6 8 9 9 9 10 10 10 6 9 7 3 10 8 7 11 26 29 31
9 7 4 6 7 6 5 3 2 2 3 2 5 4 4 6 11 10 2 10 11 13 4 1 3 3 4 5 9 10 12 10 4 8 6 4 9 9 4 8 26 27 30
9 8 8 7 10 6 5 2 4 5 4 6 8 7 7 9 10 12 7 6 5 4 3 1 0 3 2 4 4 8 8 9 3 8 13 3 7 9 4 4 25 26 29
8 6 5 5 9 6 6 5 7 7 6 6 8 7 7 8 14 16 8 8 7 6 9 13 11 14 15 18 17 7 10 9 6 3 12 6 5 10 2 5 9 26 24
6 6 6 7 9 7 7 7 9 3 5 3 8 8 13 9 13 14 8 7 5 6 5 5 4 7 9 9 14 4 5 7 8 4 8 7 6 9 5 4 6 9 9
Wind_Direction
360 9 17 14 27 348 356 336 360 330 330 323 327 317 319 312 304 291 282 292 289 302 307 304 302 299 297 292 289 288 288 285 286 267 235 217 207 199 196 194 192 193 193
1 354 21 18 24 340 341 348 346 341 333 334 328 323 330 318 315 302 294 305 305 293 285 291 298 298 298 296 293 289 284 284 286 280 257 226 210 202 197 197 194 195 195
10 349 34 33 11 320 349 357 343 342 338 335 321 338 325 319 307 303 304 282 279 323 329 327 321 304 294 293 289 288 283 277 277 277 278 245 218 205 203 200 197 199 199
22 360 46 34 339 335 11 2 358 346 342 322 340 327 315 306 320 297 292 5 343 323 345 352 335 356 312 289 289 286 283 277 269 269 268 265 239 212 205 203 202 200 202
22 4 53 29 337 346 15 9 354 348 328 350 331 316 326 307 300 7 14 11 22 13 353 343 337 337 347 341 325 290 283 291 274 268 269 268 262 223 211 206 204 202 203
20 16 37 22 358 8 15 9 0 352 341 345 326 327 303 288 32 3 360 6 7 5 352 353 343 340 334 343 8 357 311 297 290 278 270 273 280 263 217 208 207 204 204
23 47 19 21 8 10 28 13 2 354 359 4 342 333 318 82 32 11 5 5 8 358 352 348 346 357 358 32 17 15 8 5 4 1 352 322 326 308 250 212 207 206 206
38 44 31 17 10 354 34 12 21 355 347 24 2 322 342 314 20 347 2 20 4 344 352 335 21 19 14 15 13 15 8 4 359 358 356 352 341 327 312 254 211 209 207
50 35 33 18 9 13 24 13 25 1 4 11 11 32 333 351 330 353 6 22 352 344 329 5 28 19 22 15 7 12 6 5 359 358 354 349 339 332 324 296 254 215 210
65 45 28 24 22 21 31 8 16 7 31 9 358 9 356 315 336 321 360 5 338 334 327 29 26 20 21 11 12 4 4 10 6 3 359 352 345 332 315 308 288 246 216
88 56 44 31 23 21 26 16 15 33 19 12 18 341 349 355 35 329 318 336 337 333 332 27 47 22 14 12 360 356 360 13 10 8 4 358 348 336 319 299 293 290 276
105 59 61 38 39 18 20 6 28 36 30 4 11 341 335 4 14 9 322 332 326 314 320 31 24 18 9 5 0 356 360 19 14 11 8 4 356 346 333 310 295 301 290
78 71 56 49 28 17 15 3 48 24 26 9 23 351 319 15 351 145 349 331 326 309 357 40 360 13 4 6 359 2 356 22 18 13 13 8 4 357 350 338 313 299 289
84 72 63 69 41 27 11 15 53 16 18 16 27 8 334 15 336 351 87 339 340 334 338 30 342 0 4 360 2 3 358 20 20 17 15 13 11 8 3 357 350 341 311
125 88 61 61 48 31 15 30 54 18 17 21 22 19 1 5 347 12 354 11 360 334 320 346 344 357 2 5 355 5 360 12 16 16 14 17 15 14 12 7 5 6 7
89 91 71 50 41 45 22 39 47 20 33 20 27 23 17 360 0 11 355 1 350 339 306 319 329 23 16 3 352 357 11 17 13 21 19 17 18 17 16 15 12 12 14
102 96 86 68 42 58 34 38 67 34 45 28 24 30 23 14 10 6 4 0 356 338 323 333 342 16 21 4 347 353 347 29 9 26 21 19 18 20 18 18 16 15 18
90 97 96 100 83 65 63 27 69 53 29 46 29 35 31 24 22 6 11 2 354 325 349 330 11 8 21 2 342 348 356 13 9 21 28 24 19 20 20 20 19 18 18
84 77 94 86 79 96 100 81 43 99 64 30 43 44 27 34 24 4 18 5 352 337 354 346 8 8 14 359 348 348 347 353 19 17 6 24 26 20 20 19 20 20 20
85 63 50 69 64 41 65 55 56 39 53 42 33 58 34 27 26 13 14 7 357 354 4 4 15 3 1 356 354 348 351 349 15 8 354 359 20 25 19 21 19 19 20
111 110 108 85 106 80 47 54 61 47 50 40 49 37 48 22 16 22 21 8 14 10 9 11 14 4 1 359 358 339 341 331 27 23 337 5 358 17 17 14 19 17 19
133 128 120 119 117 100 91 79 81 73 59 41 27 69 64 35 9 355 29 42 40 30 11 11 7 9 360 355 342 338 345 345 344 20 330 354 11 355 23 15 23 19 17
160 149 188 162 127 116 112 96 15 328 126 104 31 15 91 47 7 342 358 61 46 35 44 16 6 333 339 339 344 343 348 341 28 360 355 323 7 354 23 16 21 23 18
155 166 190 194 116 100 102 61 321 274 144 92 76 31 24 42 13 350 8 43 17 5 330 322 263 287 295 326 9 343 332 335 321 42 15 342 335 342 340 16 25 17 20
171 139 137 108 116 108 73 33 350 299 119 90 85 63 46 39 17 10 19 32 11 341 345 2 21 22 21 16 14 0 2 7 344 29 20 336 329 335 325 17 24 16 15
119 115 100 83 117 107 73 41 10 328 92 88 131 101 59 43 23 24 31 18 358 313 319 336 353 16 20 7 9 13 351 13 357 349 351 350 335 349 334 1 13 8 5